Volver al catálogo

STARLINK-36836

ActivoComunicacionesVLEO
NORAD 68065·PAYLOAD·🇺🇸 United States

Lanzado Mar 2, 2026 desde Vandenberg Space Force Base

Loading…

Próximos Pases (próximas 24 horas)

TLE

ActualizadoSource: CelesTrak SupGP

Época: Sep 15, 2026, 03:22 UTC

1 68065C 26041AB  26258.14076389 -.00052970  00000+0 -15647-2 0  2586
2 68065  53.1574 246.8709 0001194  91.6496  12.2316 15.34422630    14

Sigue STARLINK-36836 en tiempo real con AllMySat

Download on the App Store